Location: Passau
(48.5830°N, 13.4830°E)
Time: 06:32:47
(UTC+02:00)

Transit 4A - All Passes

Search period start: 06 August 2021 00:00
Search period end: 16 August 2021 00:00
Orbit: 872 x 972 km, 66.8° (Epoch: 05 August)

Date Brightness Start Highest point End Pass type
(mag) Time Alt. Az. Time Alt. Az. Time Alt. Az.
06 Aug - 01:20:01 10° WSW 01:25:30 40° NW 01:31:00 10° NNE visible
06 Aug - 03:10:06 10° NW 03:13:32 16° NNW 03:17:00 10° NNE visible
06 Aug - 04:59:40 10° NNW 05:02:31 14° N 05:05:22 10° NE visible
06 Aug - 06:45:56 10° NNW 06:50:57 28° NE 06:56:00 10° E daylight
06 Aug - 08:32:01 10° NW 08:37:54 78° WSW 08:43:53 10° SSE daylight
06 Aug - 10:20:15 10° WNW 10:23:19 15° WSW 10:26:24 10° SW daylight
06 Aug - 22:01:04 10° ESE 22:03:00 12° E 22:04:56 10° E visible
06 Aug - 23:42:26 10° SSW 23:48:15 67° ESE 23:54:02 10° NE visible
07 Aug - 01:29:54 10° W 01:35:03 31° NW 01:40:12 10° NNE visible
07 Aug - 03:20:24 10° NW 03:23:23 14° NNW 03:26:23 10° NNE visible
07 Aug - 05:09:05 10° NNW 05:12:22 15° NNE 05:15:39 10° NE visible
07 Aug - 06:55:08 10° NNW 07:00:31 36° NE 07:05:58 10° ESE daylight
07 Aug - 08:41:24 10° NW 08:47:07 56° WSW 08:52:58 10° SSE daylight
07 Aug - 22:08:09 10° SE 22:11:57 18° ESE 22:15:43 10° ENE visible
07 Aug - 23:51:38 10° SW 23:57:31 88° NW 00:03:23 10° NE visible
08 Aug - 01:39:55 10° W 01:44:41 25° NNW 01:49:25 10° NNE visible
08 Aug - 03:30:36 10° NNW 03:33:15 13° N 03:35:55 10° NNE visible
08 Aug - 05:18:25 10° NNW 05:22:11 17° NNE 05:25:58 10° ENE daylight
08 Aug - 07:04:21 10° NNW 07:10:01 47° NE 07:15:45 10° ESE daylight
08 Aug - 08:50:54 10° NW 08:56:18 39° WSW 09:01:47 10° S daylight
08 Aug - 22:16:12 10° SSE 22:20:58 26° ESE 22:25:42 10° NE visible
09 Aug - 00:01:02 10° SW 00:06:52 65° NW 00:12:40 10° NNE visible
09 Aug - 01:50:05 10° WNW 01:54:21 20° NNW 01:58:39 10° NNE visible
09 Aug - 03:40:37 10° NNW 03:43:08 13° N 03:45:41 10° NNE visible
09 Aug - 05:27:40 10° NNW 05:31:56 20° NNE 05:36:14 10° ENE daylight
09 Aug - 07:13:36 10° NNW 07:19:27 63° NE 07:25:22 10° SE daylight
09 Aug - 09:00:32 10° NW 09:05:24 27° WSW 09:10:20 10° SSW daylight
09 Aug - 22:24:42 10° S 22:30:03 37° ESE 22:35:21 10° NE visible
10 Aug - 00:10:38 10° WSW 00:16:17 48° NW 00:21:56 10° NNE visible
10 Aug - 02:00:21 10° WNW 02:04:06 17° NNW 02:07:53 10° NNE visible
10 Aug - 03:50:23 10° NNW 03:53:02 13° N 03:55:42 10° NNE visible
10 Aug - 05:36:52 10° NNW 05:41:37 25° NNE 05:46:25 10° E daylight
10 Aug - 07:22:53 10° NW 07:28:48 86° NE 07:34:48 10° SE daylight
10 Aug - 09:10:27 10° WNW 09:14:25 19° WSW 09:18:27 10° SSW daylight
10 Aug - 22:33:31 10° SSW 22:39:12 54° ESE 22:44:52 10° NE visible
11 Aug - 00:20:24 10° WSW 00:25:46 36° NW 00:31:09 10° NNE visible
11 Aug - 02:10:39 10° NW 02:13:55 15° NNW 02:17:12 10° NNE visible
11 Aug - 03:59:55 10° NNW 04:02:54 14° NNE 04:05:55 10° NE visible
11 Aug - 05:46:05 10° NNW 05:51:15 31° NE 05:56:28 10° E daylight
11 Aug - 07:32:13 10° NW 07:38:04 70° WSW 07:44:02 10° SSE daylight
11 Aug - 09:21:02 10° WNW 09:23:23 12° WSW 09:25:45 10° SW daylight
11 Aug - 21:00:17 10° SE 21:03:03 14° ESE 21:05:50 10° ENE visible
11 Aug - 22:42:34 10° SSW 22:48:25 76° ESE 22:54:15 10° NE visible
12 Aug - 00:30:20 10° W 00:35:21 28° NW 00:40:22 10° NNE visible
12 Aug - 02:20:55 10° NW 02:23:46 14° N 02:26:38 10° NNE visible
12 Aug - 04:09:18 10° NNW 04:12:45 16° NNE 04:16:13 10° NE visible
12 Aug - 05:55:18 10° NNW 06:00:48 39° NE 06:06:22 10° ESE daylight
12 Aug - 07:41:38 10° NW 07:47:17 49° WSW 07:53:02 10° S daylight
12 Aug - 21:07:50 10° SSE 21:12:02 21° ESE 21:16:12 10° ENE visible
12 Aug - 22:51:51 10° SW 22:57:43 79° NW 23:03:35 10° NNE visible
13 Aug - 00:40:24 10° W 00:45:00 23° NNW 00:49:34 10° NNE visible
13 Aug - 02:31:04 10° NNW 02:33:39 13° N 02:36:14 10° NNE visible
13 Aug - 04:18:35 10° NNW 04:22:32 18° NNE 04:26:32 10° ENE visible
13 Aug - 06:04:31 10° NNW 06:10:16 52° NE 06:16:06 10° SE daylight
13 Aug - 07:51:11 10° NW 07:56:26 34° WSW 08:01:46 10° S daylight
13 Aug - 21:16:05 10° S 21:21:04 30° ESE 21:26:02 10° NE visible
13 Aug - 23:01:19 10° SW 23:07:06 58° NW 23:12:52 10° NNE visible
14 Aug - 00:50:37 10° WNW 00:54:42 19° NNW 00:58:48 10° NNE visible
14 Aug - 02:41:00 10° NNW 02:43:33 13° N 02:46:06 10° NNE visible
14 Aug - 04:27:49 10° NNW 04:32:17 22° NNE 04:36:46 10° E visible
14 Aug - 06:13:47 10° NNW 06:19:40 71° NE 06:25:39 10° SE daylight
14 Aug - 08:00:54 10° WNW 08:05:31 24° WSW 08:10:11 10° SSW daylight
14 Aug - 21:24:42 10° S 21:30:10 42° ESE 21:35:38 10° NE visible
14 Aug - 23:10:59 10° WSW 23:16:32 43° NW 23:22:06 10° NNE visible
15 Aug - 01:00:54 10° WNW 01:04:29 16° NNW 01:08:05 10° NNE visible
15 Aug - 02:50:40 10° NNW 02:53:26 13° N 02:56:12 10° NE visible
15 Aug - 04:37:02 10° NNW 04:41:56 27° NE 04:46:55 10° E visible
15 Aug - 06:23:04 10° NW 06:29:00 85° WSW 06:35:01 10° SSE daylight
15 Aug - 08:10:58 10° WNW 08:14:30 16° WSW 08:18:06 10° SW daylight
15 Aug - 19:53:55 10° ESE 19:54:13 10° E 19:54:29 10° E daylight
15 Aug - 21:33:36 10° SSW 21:39:21 61° ESE 21:45:06 10° NE visible
15 Aug - 23:20:49 10° WSW 23:26:03 33° NW 23:31:18 10° NNE visible
